Погода в Литго

Австралия     33°28′59″S   150°08′51″E
темп.,
°C
ветер,
м/с
пор.,
м/с
влажн.,
%
обл.,
%
осадки,
мм/ч
давл.,
гПа
погр.,
м
13 мая, чт
чт1301:00+8зюз119814 0.0 101711
04:00+6зсз119811 0.0 101625
07:00+6зсз22972 0.0 101635
10:00+13з35560 0.0 1014719
13:00+15з46450 0.0 10111175
16:00+13з48550 0.0 1010845
19:00+8з41375100 0.0 1013584
22:00+7з513840 0.0 1013788
14 мая, пт
пт1401:00+7зюз514810 0.0 1012925
04:00+7з414752 0.0 1012912
07:00+5з4138830 0.0 1014906
10:00+8зюз512583 0.0 1015931
13:00+11зюз510440 0.0 10131120
16:00+9зюз410580 0.0 10131020
19:00+5зюз513745 0.0 1017809
22:00+5зюз614714 0.0 1017823
15 мая, сб
сб1501:00+5з5127312 0.0 1016920
04:00+4з6167398 0.0 10151028
07:00+4з616655 0.0 10151055
10:00+7зюз616635 0.0 10141172
13:00+6зюз6156082 0.0 10151391
16:00+6зюз612510 0.0 10161352
19:00+2зюз29730 0.0 1022336
22:00−1з23880 0.0 102457
16 мая, вс
вс1601:00−2з22885 0.0 102528
04:00−2зсз21834 0.0 102523
07:00−1зсз21710 0.0 102724
10:00+8з23270 0.0 1023680
13:00+11з35280 0.0 10201090
16:00+9з47440 0.0 1021789
19:00+1з27800 0.0 1025202
22:000з28932 0.0 1026207
17 мая, пн
пн1701:000з27923 0.0 1026203
04:00+1з28903 0.0 1025240
07:00+1з39870 0.0 1026252
10:00+10юз48510 0.0 1024642
13:00+13ююв23380 0.0 10231325
16:00+11вюв23525 0.0 1024326
19:00+3св11925 0.0 102913
22:00+3зсз01954 0.0 103111